contact:dominique.lefevre@mio.osupytheas.fr, maurice.libes@osupytheas.fr, didier.mallarino@osupytheas.fr
Project:EMSO http://www.emso-fr.org/EMSO-France
Depth: 2436.0 m
Title:EMSO Ligure Ouest : Data MII capteur MICROCAT
DateTime_Computer,Latitude,Longitude,Temperature,Conductivity,Pressure,DateTime_Instrument
DateTime_Computer,Latitude,Longitude,degC,S m-1,dbar,DateTime_Instrument
2021-04-13T00:01:17Z,42.805,6.029,13.3000,4.60029,2469.354,2021-4-13T02:02:25Z
2021-04-13T00:04:20Z,42.805,6.029,13.3003,4.60033,2469.27,2021-4-13T02:05:28Z
2021-04-13T00:07:23Z,42.805,6.029,13.3000,4.60029,2469.293,2021-4-13T02:08:31Z
2021-04-13T00:10:26Z,42.805,6.029,13.3004,4.60032,2469.27,2021-4-13T02:11:35Z
2021-04-13T00:13:29Z,42.805,6.029,13.3009,4.60048,2469.27,2021-4-13T02:14:38Z
2021-04-13T00:16:32Z,42.805,6.029,13.3000,4.60011,2469.307,2021-4-13T02:17:41Z
2021-04-13T00:19:35Z,42.805,6.029,13.3011,4.60000,2469.307,2021-4-13T02:20:44Z
2021-04-13T00:22:39Z,42.805,6.029,13.2999,4.60031,2469.307,2021-4-13T02:23:47Z
2021-04-13T00:25:42Z,42.805,6.029,13.3012,4.60038,2469.293,2021-4-13T02:26:50Z
2021-04-13T00:28:45Z,42.805,6.029,13.3011,4.60048,2469.293,2021-4-13T02:29:53Z
2021-04-13T00:31:48Z,42.805,6.029,13.3004,4.60010,2469.27,2021-4-13T02:32:56Z
2021-04-13T00:34:51Z,42.805,6.029,13.2984,4.59989,2469.307,2021-4-13T02:36:00Z
2021-04-13T00:37:54Z,42.805,6.029,13.2990,4.59996,2469.246,2021-4-13T02:39:03Z
2021-04-13T00:40:57Z,42.805,6.029,13.2987,4.59995,2469.293,2021-4-13T02:42:06Z
2021-04-13T00:44:01Z,42.805,6.029,13.3009,4.60039,2469.27,2021-4-13T02:45:09Z
2021-04-13T00:47:04Z,42.805,6.029,13.3013,4.60025,2469.246,2021-4-13T02:48:12Z
2021-04-13T00:50:07Z,42.805,6.029,13.3011,4.60048,2469.27,2021-4-13T02:51:15Z
2021-04-13T00:53:10Z,42.805,6.029,13.3018,4.60033,2469.284,2021-4-13T02:54:18Z
2021-04-13T00:56:13Z,42.805,6.029,13.2986,4.59998,2469.26,2021-4-13T02:57:21Z
2021-04-13T00:59:16Z,42.805,6.029,13.2985,4.59998,2469.246,2021-4-13T03:00:25Z
2021-04-13T01:02:19Z,42.805,6.029,13.2988,4.59989,2469.26,2021-4-13T03:03:28Z
2021-04-13T01:05:22Z,42.805,6.029,13.2998,4.60021,2469.284,2021-4-13T03:06:31Z
2021-04-13T01:08:25Z,42.805,6.029,13.3001,4.60020,2469.26,2021-4-13T03:09:34Z
2021-04-13T01:11:29Z,42.805,6.029,13.2996,4.60004,2469.246,2021-4-13T03:12:37Z
2021-04-13T01:14:32Z,42.805,6.029,13.3009,4.60024,2469.246,2021-4-13T03:15:40Z
2021-04-13T01:17:35Z,42.805,6.029,13.3013,4.60036,2469.284,2021-4-13T03:18:43Z
2021-04-13T01:20:38Z,42.805,6.029,13.3011,4.60047,2469.26,2021-4-13T03:21:46Z
2021-04-13T01:23:41Z,42.805,6.029,13.3019,4.60045,2469.223,2021-4-13T03:24:50Z
2021-04-13T01:26:44Z,42.805,6.029,13.2985,4.59992,2469.223,2021-4-13T03:27:53Z
2021-04-13T01:29:47Z,42.805,6.029,13.2983,4.59990,2469.26,2021-4-13T03:30:56Z
2021-04-13T01:32:50Z,42.805,6.029,13.2979,4.59993,2469.284,2021-4-13T03:33:59Z
2021-04-13T01:35:54Z,42.805,6.029,13.2985,4.59990,2469.223,2021-4-13T03:37:02Z
2021-04-13T01:38:57Z,42.805,6.029,13.2986,4.59991,2469.246,2021-4-13T03:40:05Z
2021-04-13T01:42:00Z,42.805,6.029,13.2983,4.59991,2469.293,2021-4-13T03:43:08Z
2021-04-13T01:45:03Z,42.805,6.029,13.2982,4.59991,2469.26,2021-4-13T03:46:11Z
2021-04-13T01:48:06Z,42.805,6.029,13.2983,4.59993,2469.307,2021-4-13T03:49:14Z
2021-04-13T01:51:09Z,42.805,6.029,13.2982,4.59989,2469.27,2021-4-13T03:52:18Z
2021-04-13T01:54:12Z,42.805,6.029,13.2981,4.59989,2469.27,2021-4-13T03:55:21Z
2021-04-13T01:57:15Z,42.805,6.029,13.2983,4.59987,2469.246,2021-4-13T03:58:24Z
2021-04-13T02:00:19Z,42.805,6.029,13.2984,4.59988,2469.293,2021-4-13T04:01:27Z
2021-04-13T02:03:22Z,42.805,6.029,13.2983,4.59992,2469.293,2021-4-13T04:04:30Z
2021-04-13T02:06:25Z,42.805,6.029,13.2980,4.59992,2469.34,2021-4-13T04:07:33Z
2021-04-13T02:09:28Z,42.805,6.029,13.2984,4.59989,2469.293,2021-4-13T04:10:36Z
2021-04-13T02:12:31Z,42.805,6.029,13.2982,4.59988,2469.307,2021-4-13T04:13:39Z
2021-04-13T02:15:34Z,42.805,6.029,13.2983,4.59987,2469.293,2021-4-13T04:16:43Z
2021-04-13T02:18:37Z,42.805,6.029,13.2983,4.59988,2469.307,2021-4-13T04:19:46Z
2021-04-13T02:21:40Z,42.805,6.029,13.2981,4.59988,2469.33,2021-4-13T04:22:49Z
2021-04-13T02:24:44Z,42.805,6.029,13.2983,4.59988,2469.34,2021-4-13T04:25:52Z
2021-04-13T02:27:47Z,42.805,6.029,13.2985,4.59988,2469.293,2021-4-13T04:28:55Z
2021-04-13T02:30:50Z,42.805,6.029,13.2982,4.59988,2469.316,2021-4-13T04:31:58Z
2021-04-13T02:33:53Z,42.805,6.029,13.2982,4.59990,2469.293,2021-4-13T04:35:01Z
2021-04-13T02:36:56Z,42.805,6.029,13.2983,4.59991,2469.34,2021-4-13T04:38:04Z
2021-04-13T02:39:59Z,42.805,6.029,13.2985,4.59987,2469.33,2021-4-13T04:41:08Z
2021-04-13T02:43:02Z,42.805,6.029,13.2985,4.59988,2469.316,2021-4-13T04:44:11Z
2021-04-13T02:46:05Z,42.805,6.029,13.2983,4.59991,2469.354,2021-4-13T04:47:14Z
2021-04-13T02:49:09Z,42.805,6.029,13.2983,4.59991,2469.34,2021-4-13T04:50:17Z
2021-04-13T02:52:12Z,42.805,6.029,13.2985,4.59987,2469.33,2021-4-13T04:53:20Z
2021-04-13T02:55:15Z,42.805,6.029,13.2984,4.59987,2469.34,2021-4-13T04:56:23Z
2021-04-13T02:58:18Z,42.805,6.029,13.2984,4.59987,2469.33,2021-4-13T04:59:26Z
2021-04-13T03:01:21Z,42.805,6.029,13.2985,4.59992,2469.34,2021-4-13T05:02:29Z
2021-04-13T03:04:24Z,42.805,6.029,13.2983,4.59995,2469.34,2021-4-13T05:05:33Z
2021-04-13T03:07:27Z,42.805,6.029,13.2985,4.59988,2469.34,2021-4-13T05:08:36Z
2021-04-13T03:10:30Z,42.805,6.029,13.2981,4.59988,2469.34,2021-4-13T05:11:39Z
2021-04-13T03:13:34Z,42.805,6.029,13.2988,4.59989,2469.33,2021-4-13T05:14:42Z
2021-04-13T03:16:37Z,42.805,6.029,13.2986,4.59987,2469.34,2021-4-13T05:17:45Z
2021-04-13T03:19:40Z,42.805,6.029,13.2985,4.59992,2469.34,2021-4-13T05:20:48Z
2021-04-13T03:22:43Z,42.805,6.029,13.2983,4.59988,2469.34,2021-4-13T05:23:51Z
2021-04-13T03:25:46Z,42.805,6.029,13.2984,4.59995,2469.4,2021-4-13T05:26:54Z
2021-04-13T03:28:49Z,42.805,6.029,13.2986,4.59988,2469.377,2021-4-13T05:29:58Z
2021-04-13T03:31:52Z,42.805,6.029,13.2984,4.59988,2469.363,2021-4-13T05:33:01Z
2021-04-13T03:34:55Z,42.805,6.029,13.2983,4.59986,2469.354,2021-4-13T05:36:04Z
2021-04-13T03:37:59Z,42.805,6.029,13.2984,4.59987,2469.33,2021-4-13T05:39:07Z
2021-04-13T03:41:02Z,42.805,6.029,13.2984,4.59988,2469.363,2021-4-13T05:42:10Z
2021-04-13T03:44:05Z,42.805,6.029,13.2983,4.59987,2469.363,2021-4-13T05:45:13Z
2021-04-13T03:47:08Z,42.805,6.029,13.2982,4.59988,2469.386,2021-4-13T05:48:16Z
2021-04-13T03:50:11Z,42.805,6.029,13.2987,4.59989,2469.363,2021-4-13T05:51:19Z
2021-04-13T03:53:14Z,42.805,6.029,13.2983,4.59988,2469.363,2021-4-13T05:54:23Z
2021-04-13T03:56:17Z,42.805,6.029,13.2985,4.59987,2469.386,2021-4-13T05:57:26Z
2021-04-13T03:59:20Z,42.805,6.029,13.2983,4.59987,2469.386,2021-4-13T06:00:29Z
2021-04-13T04:02:24Z,42.805,6.029,13.2982,4.59988,2469.4,2021-4-13T06:03:32Z
2021-04-13T04:05:27Z,42.805,6.029,13.2981,4.59989,2469.41,2021-4-13T06:06:35Z
2021-04-13T04:08:30Z,42.805,6.029,13.2983,4.59987,2469.4,2021-4-13T06:09:38Z
2021-04-13T04:11:33Z,42.805,6.029,13.2983,4.59988,2469.363,2021-4-13T06:12:41Z
2021-04-13T04:14:36Z,42.805,6.029,13.2987,4.59987,2469.363,2021-4-13T06:15:44Z
2021-04-13T04:17:39Z,42.805,6.029,13.2981,4.59988,2469.41,2021-4-13T06:18:48Z
2021-04-13T04:20:42Z,42.805,6.029,13.2979,4.59989,2469.386,2021-4-13T06:21:51Z
2021-04-13T04:23:45Z,42.805,6.029,13.2983,4.59988,2469.4,2021-4-13T06:24:54Z
2021-04-13T04:26:48Z,42.805,6.029,13.2982,4.59989,2469.41,2021-4-13T06:27:57Z
2021-04-13T04:29:52Z,42.805,6.029,13.2983,4.59987,2469.447,2021-4-13T06:31:00Z
2021-04-13T04:32:55Z,42.805,6.029,13.2980,4.59992,2469.386,2021-4-13T06:34:03Z
2021-04-13T04:35:58Z,42.805,6.029,13.2986,4.59988,2469.41,2021-4-13T06:37:06Z
2021-04-13T04:39:01Z,42.805,6.029,13.2986,4.59990,2469.447,2021-4-13T06:40:09Z
2021-04-13T04:42:04Z,42.805,6.029,13.2986,4.59991,2469.41,2021-4-13T06:43:12Z
2021-04-13T04:45:07Z,42.805,6.029,13.2985,4.59988,2469.433,2021-4-13T06:46:16Z
2021-04-13T04:48:10Z,42.805,6.029,13.2985,4.59988,2469.433,2021-4-13T06:49:19Z
2021-04-13T04:51:13Z,42.805,6.029,13.2987,4.59988,2469.424,2021-4-13T06:52:22Z
2021-04-13T04:54:17Z,42.805,6.029,13.2983,4.59988,2469.433,2021-4-13T06:55:25Z
2021-04-13T04:57:20Z,42.805,6.029,13.2988,4.59989,2469.433,2021-4-13T06:58:28Z
2021-04-13T05:00:23Z,42.805,6.029,13.2988,4.59989,2469.41,2021-4-13T07:01:31Z
2021-04-13T05:03:26Z,42.805,6.029,13.2984,4.59989,2469.386,2021-4-13T07:04:34Z
2021-04-13T05:06:29Z,42.805,6.029,13.2988,4.59990,2469.433,2021-4-13T07:07:37Z
2021-04-13T05:09:32Z,42.805,6.029,13.2986,4.59988,2469.433,2021-4-13T07:10:41Z
2021-04-13T05:12:35Z,42.805,6.029,13.2986,4.59990,2469.433,2021-4-13T07:13:44Z
2021-04-13T05:15:38Z,42.805,6.029,13.2987,4.59996,2469.433,2021-4-13T07:16:47Z
2021-04-13T05:18:42Z,42.805,6.029,13.2983,4.59989,2469.433,2021-4-13T07:19:50Z
2021-04-13T05:21:45Z,42.805,6.029,13.2986,4.59989,2469.433,2021-4-13T07:22:53Z
2021-04-13T05:24:48Z,42.805,6.029,13.2983,4.59989,2469.424,2021-4-13T07:25:56Z
2021-04-13T05:27:51Z,42.805,6.029,13.2986,4.59988,2469.433,2021-4-13T07:28:59Z
2021-04-13T05:30:54Z,42.805,6.029,13.2991,4.59988,2469.433,2021-4-13T07:32:02Z
2021-04-13T05:33:57Z,42.805,6.029,13.2988,4.59988,2469.433,2021-4-13T07:35:06Z
2021-04-13T05:37:00Z,42.805,6.029,13.2986,4.59988,2469.433,2021-4-13T07:38:09Z
2021-04-13T05:40:03Z,42.805,6.029,13.2982,4.59988,2469.456,2021-4-13T07:41:12Z
2021-04-13T05:43:07Z,42.805,6.029,13.2982,4.59988,2469.456,2021-4-13T07:44:15Z
2021-04-13T05:46:10Z,42.805,6.029,13.2984,4.59988,2469.48,2021-4-13T07:47:18Z
2021-04-13T05:49:13Z,42.805,6.029,13.2982,4.59989,2469.447,2021-4-13T07:50:21Z
2021-04-13T05:52:16Z,42.805,6.029,13.2982,4.59988,2469.494,2021-4-13T07:53:24Z
2021-04-13T05:55:19Z,42.805,6.029,13.2982,4.59991,2469.48,2021-4-13T07:56:27Z
2021-04-13T05:58:22Z,42.805,6.029,13.2986,4.59988,2469.456,2021-4-13T07:59:31Z
2021-04-13T06:01:25Z,42.805,6.029,13.2984,4.59988,2469.494,2021-4-13T08:02:34Z
2021-04-13T06:04:28Z,42.805,6.029,13.2985,4.59990,2469.494,2021-4-13T08:05:37Z
2021-04-13T06:07:31Z,42.805,6.029,13.2986,4.59991,2469.48,2021-4-13T08:08:40Z
2021-04-13T06:10:35Z,42.805,6.029,13.2986,4.59989,2469.456,2021-4-13T08:11:43Z
2021-04-13T06:13:38Z,42.805,6.029,13.2985,4.59993,2469.503,2021-4-13T08:14:46Z
2021-04-13T06:16:41Z,42.805,6.029,13.2985,4.59994,2469.47,2021-4-13T08:17:49Z
2021-04-13T06:19:44Z,42.805,6.029,13.2987,4.59990,2469.433,2021-4-13T08:20:52Z
2021-04-13T06:22:47Z,42.805,6.029,13.2988,4.59989,2469.456,2021-4-13T08:23:56Z
2021-04-13T06:25:50Z,42.805,6.029,13.2986,4.59990,2469.494,2021-4-13T08:26:59Z
2021-04-13T06:28:53Z,42.805,6.029,13.2987,4.59991,2469.48,2021-4-13T08:30:02Z
2021-04-13T06:31:56Z,42.805,6.029,13.2986,4.59989,2469.503,2021-4-13T08:33:05Z
2021-04-13T06:35:00Z,42.805,6.029,13.2988,4.59988,2469.494,2021-4-13T08:36:08Z
2021-04-13T06:38:03Z,42.805,6.029,13.2985,4.59989,2469.456,2021-4-13T08:39:11Z
2021-04-13T06:41:06Z,42.805,6.029,13.2986,4.59990,2469.494,2021-4-13T08:42:14Z
2021-04-13T06:44:09Z,42.805,6.029,13.2986,4.59990,2469.456,2021-4-13T08:45:17Z
2021-04-13T06:47:12Z,42.805,6.029,13.2986,4.59989,2469.456,2021-4-13T08:48:21Z
2021-04-13T06:50:15Z,42.805,6.029,13.2990,4.59992,2469.48,2021-4-13T08:51:24Z
2021-04-13T06:53:18Z,42.805,6.029,13.2987,4.59990,2469.503,2021-4-13T08:54:27Z
2021-04-13T06:56:21Z,42.805,6.029,13.2984,4.59990,2469.503,2021-4-13T08:57:30Z
2021-04-13T06:59:25Z,42.805,6.029,13.2986,4.59990,2469.494,2021-4-13T09:00:33Z
2021-04-13T07:02:28Z,42.805,6.029,13.2987,4.59991,2469.494,2021-4-13T09:03:36Z
2021-04-13T07:05:31Z,42.805,6.029,13.2989,4.59989,2469.517,2021-4-13T09:06:39Z
2021-04-13T07:08:34Z,42.805,6.029,13.2986,4.59991,2469.494,2021-4-13T09:09:42Z
2021-04-13T07:11:37Z,42.805,6.029,13.2986,4.59990,2469.489,2021-4-13T09:12:45Z
2021-04-13T07:14:40Z,42.805,6.029,13.2987,4.59990,2469.503,2021-4-13T09:15:49Z
2021-04-13T07:17:43Z,42.805,6.029,13.2986,4.59990,2469.526,2021-4-13T09:18:52Z
2021-04-13T07:20:46Z,42.805,6.029,13.2983,4.59992,2469.517,2021-4-13T09:21:55Z
2021-04-13T07:23:50Z,42.805,6.029,13.2987,4.59990,2469.503,2021-4-13T09:24:58Z
2021-04-13T07:26:53Z,42.805,6.029,13.2986,4.59991,2469.48,2021-4-13T09:28:01Z
2021-04-13T07:29:56Z,42.805,6.029,13.2985,4.59994,2469.526,2021-4-13T09:31:04Z
2021-04-13T07:32:59Z,42.805,6.029,13.2986,4.59990,2469.54,2021-4-13T09:34:07Z
2021-04-13T07:36:02Z,42.805,6.029,13.2988,4.59991,2469.526,2021-4-13T09:37:10Z
2021-04-13T07:39:05Z,42.805,6.029,13.2985,4.59991,2469.517,2021-4-13T09:40:14Z
2021-04-13T07:42:08Z,42.805,6.029,13.2985,4.59989,2469.513,2021-4-13T09:43:17Z
2021-04-13T07:45:11Z,42.805,6.029,13.2987,4.59989,2469.526,2021-4-13T09:46:20Z
2021-04-13T07:48:15Z,42.805,6.029,13.2985,4.59992,2469.526,2021-4-13T09:49:23Z
2021-04-13T07:51:18Z,42.805,6.029,13.2985,4.59994,2469.54,2021-4-13T09:52:26Z
2021-04-13T07:54:21Z,42.805,6.029,13.2986,4.59991,2469.517,2021-4-13T09:55:29Z
2021-04-13T07:57:24Z,42.805,6.029,13.2983,4.59992,2469.526,2021-4-13T09:58:32Z
2021-04-13T08:00:27Z,42.805,6.029,13.2985,4.59990,2469.526,2021-4-13T10:01:35Z
2021-04-13T08:03:30Z,42.805,6.029,13.2984,4.59994,2469.55,2021-4-13T10:04:39Z
2021-04-13T08:06:33Z,42.805,6.029,13.2983,4.59992,2469.563,2021-4-13T10:07:42Z
2021-04-13T08:09:36Z,42.805,6.029,13.2989,4.59992,2469.573,2021-4-13T10:10:45Z
2021-04-13T08:12:39Z,42.805,6.029,13.2985,4.59989,2469.55,2021-4-13T10:13:48Z
2021-04-13T08:15:43Z,42.805,6.029,13.2985,4.59990,2469.54,2021-4-13T10:16:51Z
2021-04-13T08:18:46Z,42.805,6.029,13.2988,4.59992,2469.55,2021-4-13T10:19:54Z
2021-04-13T08:21:49Z,42.805,6.029,13.2989,4.59991,2469.573,2021-4-13T10:22:57Z
2021-04-13T08:24:52Z,42.805,6.029,13.2983,4.59991,2469.573,2021-4-13T10:26:00Z
2021-04-13T08:27:55Z,42.805,6.029,13.2986,4.59990,2469.573,2021-4-13T10:29:04Z
2021-04-13T08:30:58Z,42.805,6.029,13.2988,4.59992,2469.597,2021-4-13T10:32:07Z
2021-04-13T08:34:01Z,42.805,6.029,13.2987,4.59992,2469.597,2021-4-13T10:35:10Z
2021-04-13T08:37:05Z,42.805,6.029,13.2988,4.59991,2469.573,2021-4-13T10:38:13Z
2021-04-13T08:40:08Z,42.805,6.029,13.2990,4.59991,2469.597,2021-4-13T10:41:16Z
2021-04-13T08:43:11Z,42.805,6.029,13.2989,4.59991,2469.634,2021-4-13T10:44:19Z
2021-04-13T08:46:14Z,42.805,6.029,13.2990,4.59991,2469.61,2021-4-13T10:47:22Z
2021-04-13T08:49:17Z,42.805,6.029,13.2990,4.59991,2469.634,2021-4-13T10:50:25Z
2021-04-13T08:52:20Z,42.805,6.029,13.2987,4.59991,2469.62,2021-4-13T10:53:29Z
2021-04-13T08:55:23Z,42.805,6.029,13.2986,4.59993,2469.634,2021-4-13T10:56:32Z
2021-04-13T08:58:26Z,42.805,6.029,13.2986,4.59991,2469.657,2021-4-13T10:59:35Z
2021-04-13T09:01:30Z,42.805,6.029,13.2989,4.59992,2469.643,2021-4-13T11:02:38Z
2021-04-13T09:04:33Z,42.805,6.029,13.2985,4.59991,2469.643,2021-4-13T11:05:41Z
2021-04-13T09:07:36Z,42.805,6.029,13.2987,4.59991,2469.667,2021-4-13T11:08:44Z
2021-04-13T09:10:39Z,42.805,6.029,13.2986,4.59993,2469.62,2021-4-13T11:11:47Z
2021-04-13T09:13:42Z,42.805,6.029,13.2990,4.59991,2469.643,2021-4-13T11:14:51Z
2021-04-13T09:16:45Z,42.805,6.029,13.2986,4.59991,2469.643,2021-4-13T11:17:54Z
2021-04-13T09:19:48Z,42.805,6.029,13.2993,4.59993,2469.667,2021-4-13T11:20:57Z
2021-04-13T09:22:51Z,42.805,6.029,13.2984,4.59992,2469.667,2021-4-13T11:24:00Z
2021-04-13T09:25:55Z,42.805,6.029,13.2988,4.59992,2469.667,2021-4-13T11:27:03Z
2021-04-13T09:28:58Z,42.805,6.029,13.2991,4.59993,2469.69,2021-4-13T11:30:06Z
2021-04-13T09:32:01Z,42.805,6.029,13.2992,4.59993,2469.713,2021-4-13T11:33:09Z
2021-04-13T09:35:04Z,42.805,6.029,13.2989,4.59993,2469.713,2021-4-13T11:36:12Z
2021-04-13T09:38:07Z,42.805,6.029,13.2988,4.59993,2469.713,2021-4-13T11:39:16Z
2021-04-13T09:41:10Z,42.805,6.029,13.2987,4.59993,2469.75,2021-4-13T11:42:19Z
2021-04-13T09:44:13Z,42.805,6.029,13.2989,4.59993,2469.75,2021-4-13T11:45:22Z
2021-04-13T09:47:16Z,42.805,6.029,13.2987,4.59993,2469.797,2021-4-13T11:48:25Z
2021-04-13T09:50:20Z,42.805,6.029,13.2989,4.59993,2469.737,2021-4-13T11:51:28Z
2021-04-13T09:53:23Z,42.805,6.029,13.2989,4.59994,2469.773,2021-4-13T11:54:31Z
2021-04-13T09:56:26Z,42.805,6.029,13.2986,4.59994,2469.773,2021-4-13T11:57:34Z
2021-04-13T09:59:29Z,42.805,6.029,13.2991,4.59994,2469.783,2021-4-13T12:00:37Z
2021-04-13T10:02:32Z,42.805,6.029,13.2990,4.59994,2469.783,2021-4-13T12:03:41Z
2021-04-13T10:05:35Z,42.805,6.029,13.2992,4.59994,2469.821,2021-4-13T12:06:44Z
2021-04-13T10:08:38Z,42.805,6.029,13.2991,4.59994,2469.783,2021-4-13T12:09:47Z
2021-04-13T10:11:41Z,42.805,6.029,13.2995,4.59994,2469.806,2021-4-13T12:12:50Z
2021-04-13T10:14:45Z,42.805,6.029,13.2991,4.59994,2469.806,2021-4-13T12:15:53Z
2021-04-13T10:17:48Z,42.805,6.029,13.2991,4.59994,2469.76,2021-4-13T12:18:56Z
2021-04-13T10:20:51Z,42.805,6.029,13.2990,4.59994,2469.806,2021-4-13T12:21:59Z
2021-04-13T10:23:54Z,42.805,6.029,13.2991,4.59993,2469.806,2021-4-13T12:25:02Z
2021-04-13T10:26:57Z,42.805,6.029,13.2987,4.59994,2469.867,2021-4-13T12:28:06Z
2021-04-13T10:30:00Z,42.805,6.029,13.2991,4.59993,2469.853,2021-4-13T12:31:09Z
2021-04-13T10:33:03Z,42.805,6.029,13.2991,4.59993,2469.89,2021-4-13T12:34:12Z
2021-04-13T10:36:06Z,42.805,6.029,13.2987,4.59994,2469.9,2021-4-13T12:37:15Z
2021-04-13T10:39:10Z,42.805,6.029,13.2989,4.59996,2469.876,2021-4-13T12:40:18Z
2021-04-13T10:42:13Z,42.805,6.029,13.2984,4.59993,2469.867,2021-4-13T12:43:21Z
2021-04-13T10:45:16Z,42.805,6.029,13.2990,4.59992,2469.923,2021-4-13T12:46:24Z
2021-04-13T10:48:19Z,42.805,6.029,13.2993,4.59993,2469.914,2021-4-13T12:49:27Z
2021-04-13T10:51:22Z,42.805,6.029,13.2987,4.59991,2469.923,2021-4-13T12:52:31Z
2021-04-13T10:54:25Z,42.805,6.029,13.2992,4.59992,2469.914,2021-4-13T12:55:34Z
2021-04-13T10:57:28Z,42.805,6.029,13.2988,4.59991,2469.937,2021-4-13T12:58:37Z
2021-04-13T11:00:32Z,42.805,6.029,13.2986,4.59991,2469.9,2021-4-13T13:01:40Z
2021-04-13T11:03:35Z,42.805,6.029,13.2991,4.59991,2469.9,2021-4-13T13:04:43Z
2021-04-13T11:06:38Z,42.805,6.029,13.2986,4.59991,2469.947,2021-4-13T13:07:46Z
2021-04-13T11:09:41Z,42.805,6.029,13.2992,4.59991,2469.937,2021-4-13T13:10:49Z
2021-04-13T11:12:44Z,42.805,6.029,13.2987,4.59991,2469.923,2021-4-13T13:13:52Z
2021-04-13T11:15:47Z,42.805,6.029,13.2991,4.59992,2469.984,2021-4-13T13:16:56Z
2021-04-13T11:18:50Z,42.805,6.029,13.2985,4.59991,2469.947,2021-4-13T13:19:59Z
2021-04-13T11:21:53Z,42.805,6.029,13.2985,4.59991,2469.947,2021-4-13T13:23:02Z
2021-04-13T11:24:57Z,42.805,6.029,13.2987,4.59991,2469.993,2021-4-13T13:26:05Z
2021-04-13T11:28:00Z,42.805,6.029,13.2986,4.59991,2469.97,2021-4-13T13:29:08Z
2021-04-13T11:31:03Z,42.805,6.029,13.2985,4.59991,2470.007,2021-4-13T13:32:11Z
2021-04-13T11:34:06Z,42.805,6.029,13.2987,4.59991,2469.96,2021-4-13T13:35:14Z
2021-04-13T11:37:09Z,42.805,6.029,13.2987,4.59991,2469.97,2021-4-13T13:38:18Z
2021-04-13T11:40:12Z,42.805,6.029,13.2987,4.59991,2469.947,2021-4-13T13:41:21Z
2021-04-13T11:43:15Z,42.805,6.029,13.2986,4.59991,2470.053,2021-4-13T13:44:24Z
2021-04-13T11:46:18Z,42.805,6.029,13.2989,4.59991,2470.007,2021-4-13T13:47:27Z
2021-04-13T11:49:22Z,42.805,6.029,13.2987,4.59991,2469.984,2021-4-13T13:50:30Z
2021-04-13T11:52:25Z,42.805,6.029,13.2985,4.59991,2469.993,2021-4-13T13:53:33Z
2021-04-13T11:55:28Z,42.805,6.029,13.2997,4.59999,2469.923,2021-4-13T13:56:36Z
2021-04-13T11:58:31Z,42.805,6.029,13.2991,4.59991,2469.937,2021-4-13T13:59:39Z
2021-04-13T12:01:34Z,42.805,6.029,13.2987,4.59990,2469.947,2021-4-13T14:02:43Z
2021-04-13T12:04:37Z,42.805,6.029,13.2991,4.59990,2469.914,2021-4-13T14:05:46Z
2021-04-13T12:07:40Z,42.805,6.029,13.2989,4.60001,2469.923,2021-4-13T14:08:49Z
2021-04-13T12:10:43Z,42.805,6.029,13.2987,4.59990,2469.937,2021-4-13T14:11:52Z
2021-04-13T12:13:47Z,42.805,6.029,13.2986,4.59991,2469.914,2021-4-13T14:14:55Z
2021-04-13T12:16:50Z,42.805,6.029,13.2994,4.59996,2469.923,2021-4-13T14:17:58Z
2021-04-13T12:19:53Z,42.805,6.029,13.2996,4.60001,2469.89,2021-4-13T14:21:01Z
2021-04-13T12:22:56Z,42.805,6.029,13.2986,4.59991,2469.876,2021-4-13T14:24:04Z
2021-04-13T12:25:59Z,42.805,6.029,13.2990,4.59997,2469.9,2021-4-13T14:27:08Z
2021-04-13T12:29:02Z,42.805,6.029,13.2987,4.59989,2469.9,2021-4-13T14:30:11Z
2021-04-13T12:32:05Z,42.805,6.029,13.2984,4.59990,2469.821,2021-4-13T14:33:14Z
2021-04-13T12:35:09Z,42.805,6.029,13.2987,4.59990,2469.853,2021-4-13T14:36:17Z
2021-04-13T12:38:12Z,42.805,6.029,13.2989,4.59989,2469.867,2021-4-13T14:39:20Z
2021-04-13T12:41:15Z,42.805,6.029,13.2988,4.59989,2469.876,2021-4-13T14:42:23Z
2021-04-13T12:44:18Z,42.805,6.029,13.2985,4.59989,2469.806,2021-4-13T14:45:26Z
2021-04-13T12:47:21Z,42.805,6.029,13.2986,4.59989,2469.83,2021-4-13T14:48:29Z
2021-04-13T12:50:24Z,42.805,6.029,13.2989,4.59990,2469.83,2021-4-13T14:51:33Z
2021-04-13T12:53:27Z,42.805,6.029,13.2983,4.59991,2469.793,2021-4-13T14:54:36Z
2021-04-13T12:56:30Z,42.805,6.029,13.2987,4.59989,2469.844,2021-4-13T14:57:39Z
2021-04-13T12:59:34Z,42.805,6.029,13.2986,4.59989,2469.806,2021-4-13T15:00:42Z
2021-04-13T13:02:37Z,42.805,6.029,13.2990,4.59991,2469.821,2021-4-13T15:03:45Z
2021-04-13T13:05:40Z,42.805,6.029,13.2989,4.59990,2469.806,2021-4-13T15:06:48Z
2021-04-13T13:08:43Z,42.805,6.029,13.2986,4.59991,2469.783,2021-4-13T15:09:51Z
2021-04-13T13:11:46Z,42.805,6.029,13.2988,4.59994,2469.797,2021-4-13T15:12:54Z
2021-04-13T13:14:49Z,42.805,6.029,13.2986,4.59990,2469.783,2021-4-13T15:15:58Z
2021-04-13T13:17:52Z,42.805,6.029,13.2986,4.59990,2469.783,2021-4-13T15:19:01Z
2021-04-13T13:20:55Z,42.805,6.029,13.2986,4.59990,2469.76,2021-4-13T15:22:04Z
2021-04-13T13:23:59Z,42.805,6.029,13.2989,4.59990,2469.737,2021-4-13T15:25:07Z
2021-04-13T13:27:02Z,42.805,6.029,13.2986,4.59991,2469.75,2021-4-13T15:28:10Z
2021-04-13T13:30:05Z,42.805,6.029,13.2990,4.59991,2469.76,2021-4-13T15:31:13Z
2021-04-13T13:33:08Z,42.805,6.029,13.2989,4.59991,2469.713,2021-4-13T15:34:16Z
2021-04-13T13:36:11Z,42.805,6.029,13.2985,4.59991,2469.713,2021-4-13T15:37:19Z
2021-04-13T13:39:14Z,42.805,6.029,13.2989,4.59991,2469.704,2021-4-13T15:40:23Z
2021-04-13T13:42:17Z,42.805,6.029,13.2991,4.59992,2469.704,2021-4-13T15:43:26Z
2021-04-13T13:45:20Z,42.805,6.029,13.2986,4.59991,2469.667,2021-4-13T15:46:29Z
2021-04-13T13:48:24Z,42.805,6.029,13.2998,4.60004,2469.68,2021-4-13T15:49:32Z
2021-04-13T13:51:27Z,42.805,6.029,13.2992,4.59994,2469.667,2021-4-13T15:52:35Z
2021-04-13T13:54:30Z,42.805,6.029,13.2990,4.60004,2469.643,2021-4-13T15:55:38Z
2021-04-13T13:57:33Z,42.805,6.029,13.2989,4.59993,2469.62,2021-4-13T15:58:41Z
2021-04-13T14:00:36Z,42.805,6.029,13.2994,4.59994,2469.62,2021-4-13T16:01:44Z
2021-04-13T14:03:39Z,42.805,6.029,13.2988,4.59991,2469.62,2021-4-13T16:04:48Z
2021-04-13T14:06:42Z,42.805,6.029,13.3000,4.60010,2469.587,2021-4-13T16:07:51Z
2021-04-13T14:09:45Z,42.805,6.029,13.2996,4.59993,2469.597,2021-4-13T16:10:54Z
2021-04-13T14:12:49Z,42.805,6.029,13.2990,4.59996,2469.61,2021-4-13T16:13:57Z
2021-04-13T14:15:52Z,42.805,6.029,13.2988,4.59998,2469.61,2021-4-13T16:17:00Z
2021-04-13T14:18:55Z,42.805,6.029,13.2992,4.59993,2469.61,2021-4-13T16:20:03Z
2021-04-13T14:21:58Z,42.805,6.029,13.2998,4.60009,2469.597,2021-4-13T16:23:06Z
2021-04-13T14:25:01Z,42.805,6.029,13.2986,4.59993,2469.61,2021-4-13T16:26:09Z
2021-04-13T14:28:04Z,42.805,6.029,13.2997,4.60014,2469.597,2021-4-13T16:29:13Z
2021-04-13T14:31:07Z,42.805,6.029,13.3003,4.60008,2469.573,2021-4-13T16:32:16Z
2021-04-13T14:34:10Z,42.805,6.029,13.3001,4.60006,2469.62,2021-4-13T16:35:19Z
2021-04-13T14:37:14Z,42.805,6.029,13.3000,4.60016,2469.61,2021-4-13T16:38:22Z
2021-04-13T14:40:17Z,42.805,6.029,13.2997,4.60019,2469.61,2021-4-13T16:41:25Z
2021-04-13T14:43:20Z,42.805,6.029,13.2997,4.60014,2469.62,2021-4-13T16:44:28Z
2021-04-13T14:46:23Z,42.805,6.029,13.2996,4.60021,2469.597,2021-4-13T16:47:31Z
2021-04-13T14:49:26Z,42.805,6.029,13.2998,4.60021,2469.643,2021-4-13T16:50:35Z
2021-04-13T14:52:29Z,42.805,6.029,13.2991,4.60019,2469.597,2021-4-13T16:53:38Z
2021-04-13T14:55:32Z,42.805,6.029,13.2998,4.60014,2469.597,2021-4-13T16:56:41Z
2021-04-13T14:58:35Z,42.805,6.029,13.2999,4.60023,2469.62,2021-4-13T16:59:44Z
2021-04-13T15:01:39Z,42.805,6.029,13.3003,4.60017,2469.55,2021-4-13T17:02:47Z
2021-04-13T15:04:42Z,42.805,6.029,13.2997,4.59997,2469.526,2021-4-13T17:05:50Z
2021-04-13T15:07:45Z,42.805,6.029,13.2996,4.60003,2469.597,2021-4-13T17:08:53Z
2021-04-13T15:10:48Z,42.805,6.029,13.2990,4.59997,2469.657,2021-4-13T17:11:56Z
2021-04-13T15:13:51Z,42.805,6.029,13.2996,4.60009,2469.597,2021-4-13T17:15:00Z